FW8918 Weather Reports


time (UTC)temp
C
wind
direction
speed
KPH
gust
KPH
rain 1hr
cm
rain 24hr
cm
rain mn
cm
humidity
%
barometer
mb
20260904204535 14 231 14.5 33.8 0.25 1.47 1.47 89 1004.4
20260904203041 14 311 16.1 37.0 0.23 1.45 1.45 91 1004.4
20260904201537 14 256 17.7 33.8 0.23 1.45 1.45 88 1004.4
20260904200037 15 251 14.5 25.7 0.08 1.30 1.30 88 1004.3
20260904194537 15 328 11.3 38.6 0.00 1.22 1.22 83 1004.3
20260904193036 15 253 11.3 29.0 0.00 1.22 1.22 85 1004.0
20260904191538 15 274 12.9 32.2 0.00 1.22 1.22 84 1004.2
20260904190034 15 308 12.9 35.4 0.00 1.22 1.22 84 1004.0
20260904184541 15 359 16.1 29.0 0.00 1.22 1.22 86 1004.0
20260904183035 15 312 11.3 32.2 0.00 1.22 1.22 85 1003.6
20260904181538 15 290 9.7 32.2 0.00 1.22 1.22 84 1003.8
20260904180053 15 243 11.3 29.0 0.00 1.22 1.22 83 1003.6
20260904174537 15 284 14.5 27.4 0.00 1.22 1.22 84 1003.5
20260904173058 15 261 12.9 33.8 0.00 1.22 1.22 84 1003.4
20260904171543 15 247 12.9 30.6 0.00 1.22 1.22 84 1003.3
20260904170038 15 264 12.9 33.8 0.00 1.22 1.22 86 1003.1
20260904164535 15 279 9.7 29.0 0.00 1.22 1.22 93 1002.9
20260904163042 15 243 11.3 33.8 0.00 1.22 1.22 94 1002.6
20260904161534 15 325 9.7 25.7 0.10 1.22 1.22 95 1002.1
20260904160037 15 311 8.0 29.0 0.10 1.22 1.22 95 1001.9
20260904154537 15 294 8.0 25.7 0.13 1.22 1.22 95 1002.0
20260904153045 15 281 16.1 43.5 0.13 1.22 1.22 92 1001.9
20260904151534 15 277 11.3 24.1 0.00 1.09 1.09 94 1001.4
20260904150041 15 255 9.7 27.4 0.05 1.09 1.09 96 1001.5
20260904144534 15 276 8.0 17.7 0.05 1.09 1.07 96 1001.6
20260904143039 15 261 3.2 8.0 0.08 1.09 1.07 96 1001.5
20260904141539 15 0 1.6 6.4 0.08 1.09 1.07 96 1001.4
20260904140036 15 245 1.6 8.0 0.05 1.04 1.02 96 1001.4
20260904134537 15 240 0.0 9.7 0.05 1.02 1.02 96 1001.5
20260904133036 14 295 3.2 6.4 0.05 1.02 0.99 95 1001.5
20260904131536 14 317 1.6 9.7 0.05 1.02 0.99 95 1001.6
20260904130035 15 252 0.0 3.2 0.03 0.99 0.97 95 1001.7
20260904124548 15 0 0.0 1.6 0.00 0.97 0.94 95 1001.8
20260904123035 15 0 0.0 0.0 0.00 0.94 0.94 95 1001.8
20260904121536 15 0 0.0 0.0 0.00 0.94 0.94 95 1001.9
20260904120034 15 0 0.0 0.0 0.03 0.94 0.94 95 1002.0
20260904114540 14 0 0.0 3.2 0.08 0.94 0.94 95 1002.0
20260904113046 14 276 0.0 6.4 0.18 0.94 0.91 95 1001.9
20260904111534 14 245 0.0 6.4 0.36 0.94 0.91 95 1002.3
20260904110036 14 311 1.6 6.4 0.48 0.91 0.89 94 1002.5
20260904104535 15 0 0.0 0.0 0.71 0.89 0.84 95 1002.4
20260904103041 15 0 0.0 6.4 0.61 0.76 0.74 94 1002.3
20260904101537 15 309 1.6 6.4 0.43 0.56 0.53 93 1002.4
20260904100032 15 257 3.2 12.9 0.28 0.41 0.36 92 1002.5
20260904094545 16 236 3.2 11.3 0.03 0.18 0.13 92 1002.3
20260904093036 16 243 4.8 11.3 0.00 0.18 0.10 91 1002.7
20260904091534 16 271 6.4 12.9 0.00 0.15 0.08 90 1002.7
20260904090033 16 250 8.0 17.7 0.00 0.15 0.08 90 1002.8
20260904084534 16 233 4.8 16.1 0.00 0.15 0.08 90 1002.8
20260904083036 16 264 6.4 20.9 0.00 0.15 0.08 90 1003.0
20260904081534 16 273 9.7 17.7 0.00 0.15 0.08 91 1003.1
20260904080040 16 230 8.0 16.1 0.00 0.15 0.08 90 1003.1
20260904074559 16 253 8.0 22.5 0.00 0.15 0.08 89 1003.4
20260904073041 16 235 8.0 19.3 0.00 0.15 0.08 88 1003.6
20260904071539 16 255 9.7 17.7 0.00 0.15 0.08 88 1003.6
20260904070033 16 240 8.0 17.7 0.00 0.15 0.08 88 1003.9
20260904064535 16 245 11.3 16.1 0.00 0.18 0.08 87 1003.8
20260904063036 16 240 8.0 16.1 0.00 0.18 0.08 88 1004.0
20260904061535 16 190 6.4 14.5 0.00 0.18 0.08 90 1003.9
20260904060036 16 269 4.8 12.9 0.00 0.18 0.08 90 1004.2
20260904054534 16 255 6.4 19.3 0.00 0.18 0.08 91 1004.6
20260904053039 16 247 4.8 14.5 0.00 0.18 0.08 92 1004.7
20260904051538 16 255 8.0 20.9 0.00 0.18 0.08 92 1004.8
20260904050038 16 255 6.4 17.7 0.00 0.18 0.08 92 1005.0
20260904044536 16 247 8.0 19.3 0.00 0.18 0.08 93 1005.0
20260904043040 16 251 6.4 14.5 0.00 0.18 0.08 93 1005.2
20260904041536 15 223 8.0 17.7 0.00 0.18 0.08 93 1005.6
20260904040035 15 254 4.8 14.5 0.03 0.18 0.08 93 1005.5
20260904034544 15 250 6.4 17.7 0.03 0.28 0.08 93 1006.1
20260904033034 15 270 6.4 19.3 0.08 0.28 0.08 92 1006.5
20260904031534 16 271 12.9 25.7 0.08 0.25 0.08 92 1007.0
20260904030038 16 250 8.0 16.1 0.05 0.23 0.05 91 1007.2
20260904024534 16 245 9.7 19.3 0.05 0.28 0.05 90 1007.4
20260904023035 16 274 4.8 12.9 0.00 0.20 0.00 88 1007.5
20260904021540 16 273 6.4 16.1 0.00 0.20 0.00 87 1007.8
20260904020035 16 262 8.0 17.7 0.00 0.20 0.00 88 1008.0
20260904014541 16 214 4.8 14.5 0.00 0.20 0.00 88 1008.0
20260904013037 16 275 3.2 8.0 0.00 0.20 0.00 85 1008.3
20260904011536 16 288 6.4 11.3 0.00 0.20 0.00 84 1008.5
20260904010033 16 280 6.4 16.1 0.00 0.20 0.00 83 1008.7
20260904004537 16 309 6.4 16.1 0.00 0.20 0.00 83 1008.9
20260904003035 16 276 6.4 16.1 0.00 0.20 0.00 81 1008.9
20260904001532 16 248 8.0 19.3 0.00 0.20 0.00 80 1009.0
20260904000113 16 276 6.4 17.7 0.00 0.20 0.00 80 1009.2
20260903234537 16 268 9.7 20.9 0.00 0.20 0.00 80 1009.4
20260903233037 16 297 9.7 29.0 0.00 0.20 0.00 80 1009.6
20260903231534 16 200 9.7 22.5 0.00 0.20 0.00 80 1009.7
20260903230035 16 240 11.3 25.7 0.00 0.20 0.00 80 1009.8
20260903224545 16 288 9.7 22.5 0.00 0.20 0.00 81 1009.8
20260903223036 16 282 9.7 22.5 0.00 0.20 0.00 82 1009.5
20260903221535 16 276 11.3 24.1 0.00 0.20 0.00 81 1009.7
20260903220035 16 270 9.7 20.9 0.00 0.20 0.00 82 1009.6
20260903214537 16 222 9.7 24.1 0.00 0.71 0.20 81 1009.6
20260903213039 16 252 11.3 25.7 0.00 0.71 0.20 81 1009.9
20260903211542 16 316 14.5 30.6 0.00 0.71 0.20 81 1009.9
20260903210044 16 295 12.9 27.4 0.00 0.71 0.20 81 1009.8